FALCON 9 DEB (53513 NORAD) Tracking and Keplerian Element Data

This shows tracking and keplerian element data for the satellite.

Feedback or suggestion? Click here.




ElementValue
Catalog53513
NameFALCON 9 DEB
Epoch Orbit720
Epoch Day270.00156208
Epoch Year2022
RAAN33.397
Inclination97.6621
Eccentricity0.0005009
Argument of Perigee303.6498
Mean Anonmoly56.4311
Mean Motion16.19507956
Decay Rate0.01375055
L11 53513U 22099BA 22270.00156208 .01375055 25778-5 75953-3 0 9996
L22 53513 97.6621 33.3970 0005009 303.6498 56.4311 16.19507956 7200



Live tracking and technical data element details for FALCON 9 DEB (NORAD 53513). FALCON 9 DEB can be tracked NOW for your location showing map with azimuth and elevation plus other details from your city location.







IsCatalogInMostPopularTable: catalog: 53513, numindb: 4
Update: records affected: 1



GetName: 53513 FALCON 9 DEB

Hit Count: updated at: Thu, 08 Dec 2022 18:48:20 GMT